TimeEDT,TemperatureF,Dew PointF,Humidity,Sea Level PressureIn,VisibilityMPH,Wind Direction,Wind SpeedMPH,Gust SpeedMPH,PrecipitationIn,Events,Conditions,WindDirDegrees,DateUTC
12:53 AM,69.1,66.0,90,29.86,6.0,Calm,Calm,-,N/A,,Overcast,0,2013-10-06 04:53:00
1:53 AM,69.1,66.9,93,29.85,7.0,SSE,6.9,-,N/A,,Overcast,160,2013-10-06 05:53:00
2:53 AM,70.0,66.9,90,29.84,10.0,South,9.2,-,N/A,,Overcast,190,2013-10-06 06:53:00
3:53 AM,70.0,66.0,87,29.83,10.0,SSW,9.2,-,N/A,,Scattered Clouds,200,2013-10-06 07:53:00
4:27 AM,69.8,66.2,88,29.84,10.0,SSW,8.1,-,N/A,,Scattered Clouds,210,2013-10-06 08:27:00
4:53 AM,70.0,66.0,87,29.82,10.0,SSW,6.9,-,N/A,,Partly Cloudy,210,2013-10-06 08:53:00
5:15 AM,69.8,66.2,88,29.83,10.0,SSW,10.4,-,N/A,,Mostly Cloudy,200,2013-10-06 09:15:00
5:37 AM,69.8,64.4,83,29.83,10.0,SSW,9.2,-,N/A,,Scattered Clouds,210,2013-10-06 09:37:00
5:53 AM,69.1,64.9,87,29.82,10.0,South,5.8,-,N/A,,Clear,190,2013-10-06 09:53:00
6:53 AM,68.0,64.9,90,29.82,10.0,South,9.2,-,0.00,Rain,Light Rain,190,2013-10-06 10:53:00
7:53 AM,68.0,64.9,90,29.80,10.0,SSW,8.1,-,0.01,,Mostly Cloudy,200,2013-10-06 11:53:00
8:04 AM,68.0,66.2,94,29.81,10.0,SSW,6.9,-,N/A,,Overcast,200,2013-10-06 12:04:00
8:33 AM,68.0,64.4,88,29.81,10.0,SW,6.9,-,0.00,Rain,Light Rain,230,2013-10-06 12:33:00
8:53 AM,68.0,64.0,87,29.81,10.0,SSW,9.2,-,0.00,,Overcast,200,2013-10-06 12:53:00
9:07 AM,68.0,64.4,88,29.81,10.0,SSW,11.5,-,N/A,,Overcast,200,2013-10-06 13:07:00
9:53 AM,68.0,64.9,90,29.78,10.0,SSW,5.8,-,0.01,Rain,Light Rain,210,2013-10-06 13:53:00
10:53 AM,69.1,64.9,87,29.77,10.0,SSW,9.2,-,0.00,,Mostly Cloudy,200,2013-10-06 14:53:00
11:02 AM,69.8,64.4,83,29.77,10.0,South,6.9,-,0.01,,Overcast,170,2013-10-06 15:02:00
11:34 AM,69.8,64.4,83,29.77,10.0,South,8.1,-,0.01,Rain,Light Rain,190,2013-10-06 15:34:00
11:44 AM,69.8,64.4,83,29.78,10.0,South,6.9,-,0.01,Rain,Light Rain,190,2013-10-06 15:44:00
11:53 AM,70.0,66.0,87,29.77,10.0,South,6.9,-,0.01,,Mostly Cloudy,190,2013-10-06 15:53:00
12:17 PM,69.8,64.4,83,29.78,10.0,SSW,6.9,-,0.00,Rain,Light Rain,200,2013-10-06 16:17:00
12:53 PM,69.1,64.9,87,29.77,10.0,SSW,9.2,-,0.00,Rain,Light Rain,210,2013-10-06 16:53:00
1:29 PM,69.8,64.4,83,29.76,10.0,SSW,13.8,-,0.01,Rain,Light Rain,200,2013-10-06 17:29:00
1:53 PM,70.0,64.9,84,29.74,10.0,SSW,10.4,-,0.01,Rain,Light Rain,200,2013-10-06 17:53:00
2:05 PM,69.8,64.4,83,29.73,10.0,SSW,8.1,16.1,0.00,Rain,Light Rain,210,2013-10-06 18:05:00
2:41 PM,69.8,64.4,83,29.72,10.0,South,13.8,-,0.00,,Mostly Cloudy,190,2013-10-06 18:41:00
2:48 PM,71.6,64.4,78,29.71,10.0,SSW,8.1,-,0.00,,Scattered Clouds,200,2013-10-06 18:48:00
2:53 PM,71.1,64.0,78,29.70,10.0,SSW,10.4,-,0.00,,Scattered Clouds,200,2013-10-06 18:53:00
3:53 PM,73.0,63.0,71,29.68,10.0,South,11.5,18.4,0.01,,Scattered Clouds,180,2013-10-06 19:53:00
4:53 PM,73.0,63.0,71,29.66,10.0,South,13.8,-,N/A,,Scattered Clouds,180,2013-10-06 20:53:00
5:53 PM,70.0,64.0,81,29.65,10.0,South,15.0,27.6,0.01,Rain,Light Rain,190,2013-10-06 21:53:00
6:23 PM,68.0,64.4,88,29.66,2.0,SSW,11.5,18.4,0.00,Rain,Rain,210,2013-10-06 22:23:00
6:34 PM,66.2,64.4,94,29.66,2.0,West,12.7,21.9,N/A,Rain,Heavy Rain,280,2013-10-06 22:34:00
6:41 PM,64.4,60.8,88,29.69,1.2,WSW,11.5,21.9,N/A,Rain,Heavy Rain,250,2013-10-06 22:41:00
6:53 PM,63.0,60.1,90,29.68,1.2,West,11.5,18.4,N/A,Rain,Heavy Rain,270,2013-10-06 22:53:00
6:57 PM,62.6,60.8,94,29.68,3.0,West,10.4,18.4,N/A,Rain,Light Rain,270,2013-10-06 22:57:00
7:05 PM,62.6,60.8,94,29.68,10.0,West,6.9,-,N/A,,Overcast,260,2013-10-06 23:05:00
7:43 PM,62.6,60.8,94,29.68,10.0,Calm,Calm,-,N/A,Rain,Light Rain,0,2013-10-06 23:43:00
7:53 PM,63.0,60.1,90,29.69,10.0,WSW,4.6,-,N/A,Rain,Light Rain,250,2013-10-06 23:53:00
8:16 PM,62.6,59.0,88,29.70,10.0,WSW,10.4,-,0.01,Rain,Light Rain,240,2013-10-07 00:16:00
8:26 PM,62.6,57.2,82,29.71,10.0,WSW,9.2,-,0.01,Rain,Light Rain,240,2013-10-07 00:26:00
8:38 PM,62.6,57.2,82,29.71,10.0,WSW,15.0,20.7,0.01,Rain,Light Rain,240,2013-10-07 00:38:00
8:50 PM,62.6,57.2,82,29.72,10.0,WSW,11.5,-,0.01,Rain,Light Rain,250,2013-10-07 00:50:00
8:53 PM,62.1,57.9,86,29.70,10.0,West,9.2,18.4,0.01,Rain,Light Rain,260,2013-10-07 00:53:00
9:53 PM,60.1,57.0,90,29.72,10.0,West,5.8,-,0.01,,Overcast,260,2013-10-07 01:53:00
10:31 PM,59.0,55.4,88,29.74,10.0,WSW,9.2,-,0.00,Rain,Light Rain,250,2013-10-07 02:31:00
10:38 PM,59.0,55.4,88,29.74,10.0,WSW,9.2,-,0.00,Rain,Light Rain,250,2013-10-07 02:38:00
10:53 PM,59.0,55.0,87,29.74,10.0,West,6.9,-,0.01,Rain,Light Rain,270,2013-10-07 02:53:00
11:00 PM,57.2,53.6,88,29.73,10.0,West,8.1,-,0.00,Rain,Light Rain,280,2013-10-07 03:00:00
11:53 PM,57.0,53.1,87,29.72,10.0,Calm,Calm,-,0.00,Rain,Light Rain,0,2013-10-07 03:53:00